DLH6K LSZH-EDDF

Flight info

Callsign DLH6K
Flight time 0h 44m
Altitude 20000
Route DEGES3W DEGES Z1 SUDEN T164 KOVAN T163 SPESA SPESA5B
Aircraft A319/M-SDE3FGHIRWY/LB1

Departure

Time 2026-05-05 16:10
Airport Zürich Airport (LSZH)

Arrival

Time 2026-05-05 16:54
Airport Frankfurt Main Airport (EDDF)
Time Latitude Longitude Altitude Speed Heading
2026-05-05 15:41 47.45428 8.55634 1407 ft 0 kts 186°
2026-05-05 16:00 47.45447 8.55637 1408 ft 3 kts 191°
2026-05-05 16:01 47.45468 8.55643 1413 ft 3 kts 181°
2026-05-05 16:01 47.45486 8.55640 1411 ft 3 kts 162°
2026-05-05 16:01 47.45505 8.55628 1414 ft 3 kts 142°
2026-05-05 16:01 47.45518 8.55607 1408 ft 3 kts 102°
2026-05-05 16:02 47.45519 8.55597 1408 ft 0 kts 96°
2026-05-05 16:04 47.45517 8.55627 1411 ft 7 kts 96°
2026-05-05 16:04 47.45511 8.55713 1407 ft 10 kts 96°
2026-05-05 16:04 47.45492 8.55826 1409 ft 13 kts 113°
2026-05-05 16:05 47.45478 8.55968 1407 ft 14 kts 96°
2026-05-05 16:05 47.45467 8.56115 1407 ft 14 kts 96°
2026-05-05 16:05 47.45496 8.56246 1412 ft 13 kts 52°
2026-05-05 16:05 47.45545 8.56335 1413 ft 9 kts 51°
2026-05-05 16:06 47.45588 8.56416 1414 ft 12 kts 56°
2026-05-05 16:06 47.45589 8.56554 1418 ft 15 kts 96°
2026-05-05 16:06 47.45577 8.56723 1419 ft 17 kts 96°
2026-05-05 16:06 47.45566 8.56882 1420 ft 13 kts 96°
2026-05-05 16:07 47.45562 8.56932 1421 ft 0 kts 96°
2026-05-05 16:08 47.45562 8.56947 1421 ft 5 kts 94°
2026-05-05 16:09 47.45606 8.57019 1424 ft 14 kts 11°
2026-05-05 16:09 47.45666 8.56956 1424 ft 12 kts 275°
2026-05-05 16:09 47.45667 8.56946 1424 ft 0 kts 276°
2026-05-05 16:09 47.45682 8.56733 1419 ft 59 kts 276°
2026-05-05 16:10 47.45750 8.55765 1410 ft 128 kts 276°
2026-05-05 16:10 47.45846 8.54295 1788 ft 146 kts 276°
2026-05-05 16:10 47.45951 8.52786 2592 ft 149 kts 275°
2026-05-05 16:10 47.46063 8.51267 3482 ft 149 kts 274°
2026-05-05 16:11 47.46172 8.49754 4351 ft 147 kts 273°
2026-05-05 16:11 47.44203 8.46311 6140 ft 212 kts 174°
2026-05-05 16:12 47.42853 8.47412 6734 ft 239 kts 130°
2026-05-05 16:12 47.42097 8.52157 8769 ft 251 kts 95°
2026-05-05 16:13 47.42006 8.60171 11001 ft 279 kts 93°
2026-05-05 16:13 47.41981 8.63154 11344 ft 303 kts 93°
2026-05-05 16:13 47.41948 8.66385 11662 ft 327 kts 93°
2026-05-05 16:14 47.41869 8.73373 12169 ft 372 kts 93°
2026-05-05 16:14 47.41783 8.81199 13486 ft 386 kts 92°
2026-05-05 16:15 47.41698 8.89130 14843 ft 393 kts 92°
2026-05-05 16:15 47.41596 8.97334 16156 ft 401 kts 93°
2026-05-05 16:16 47.41473 9.05575 17478 ft 408 kts 94°
2026-05-05 16:16 47.41345 9.13773 18666 ft 415 kts 92°
2026-05-05 16:17 47.42329 9.22208 19682 ft 428 kts 72°
2026-05-05 16:17 47.43568 9.26217 19825 ft 433 kts 62°
2026-05-05 16:18 47.46746 9.33812 19852 ft 461 kts 53°
2026-05-05 16:18 47.48915 9.37324 19851 ft 465 kts 43°
2026-05-05 16:18 47.54294 9.42583 19864 ft 465 kts 23°
2026-05-05 16:19 47.57345 9.44180 19839 ft 464 kts 14°
2026-05-05 16:19 47.60504 9.45101 19838 ft 463 kts
2026-05-05 16:19 47.66917 9.45579 19838 ft 461 kts
2026-05-05 16:20 47.73334 9.45915 19838 ft 461 kts
2026-05-05 16:20 47.79749 9.46265 19841 ft 461 kts
2026-05-05 16:21 47.86163 9.46417 19853 ft 461 kts 359°
2026-05-05 16:22 47.95771 9.46258 19848 ft 459 kts 358°
2026-05-05 16:22 48.02161 9.46191 19844 ft 459 kts 359°
2026-05-05 16:23 48.08547 9.46196 19841 ft 459 kts 359°
2026-05-05 16:23 48.11749 9.46205 19838 ft 459 kts 359°
2026-05-05 16:23 48.18141 9.46200 19833 ft 460 kts 359°
2026-05-05 16:24 48.21343 9.46195 19833 ft 460 kts 359°
2026-05-05 16:24 48.24536 9.46193 19833 ft 460 kts 359°
2026-05-05 16:24 48.30935 9.46198 19851 ft 459 kts 359°
2026-05-05 16:25 48.34130 9.46205 19852 ft 459 kts 359°
2026-05-05 16:25 48.40509 9.46218 19853 ft 458 kts 359°
2026-05-05 16:25 48.43681 9.46220 19852 ft 458 kts 359°
2026-05-05 16:26 48.49911 9.44530 19845 ft 454 kts 337°
2026-05-05 16:26 48.55225 9.39581 19832 ft 449 kts 315°
2026-05-05 16:27 48.57323 9.36124 19830 ft 446 kts 305°
2026-05-05 16:27 48.59073 9.32269 19835 ft 445 kts 303°
2026-05-05 16:27 48.61055 9.28673 19837 ft 448 kts 312°
2026-05-05 16:27 48.63418 9.25587 19838 ft 450 kts 322°
2026-05-05 16:28 48.66100 9.23134 19837 ft 453 kts 332°
2026-05-05 16:28 48.68945 9.21243 19836 ft 453 kts 335°
2026-05-05 16:28 48.71838 9.19348 19837 ft 453 kts 335°
2026-05-05 16:28 48.74733 9.17431 19841 ft 454 kts 335°
2026-05-05 16:29 48.77626 9.15506 19835 ft 454 kts 335°
2026-05-05 16:29 48.80492 9.13595 19834 ft 455 kts 334°
2026-05-05 16:29 48.83390 9.11668 19827 ft 455 kts 335°
2026-05-05 16:29 48.86368 9.10060 19825 ft 450 kts 343°
2026-05-05 16:30 48.88361 9.09412 19832 ft 436 kts 350°
2026-05-05 16:30 48.91304 9.09028 19842 ft 424 kts 359°
2026-05-05 16:30 48.94215 9.09288 19840 ft 412 kts
2026-05-05 16:30 48.97034 9.09707 19837 ft 406 kts
2026-05-05 16:31 48.99734 9.10089 19843 ft 407 kts
2026-05-05 16:31 49.02558 9.10479 19842 ft 408 kts
2026-05-05 16:31 49.05388 9.10874 19842 ft 408 kts
2026-05-05 16:31 49.08212 9.11277 19836 ft 408 kts
2026-05-05 16:32 49.11038 9.11683 19842 ft 409 kts
2026-05-05 16:32 49.13942 9.12098 19841 ft 427 kts
2026-05-05 16:32 49.16909 9.12524 19841 ft 435 kts
2026-05-05 16:32 49.19953 9.12961 19843 ft 443 kts
2026-05-05 16:33 49.23024 9.13405 19841 ft 445 kts
2026-05-05 16:33 49.26110 9.13848 19839 ft 445 kts
2026-05-05 16:33 49.29196 9.14286 19834 ft 446 kts
2026-05-05 16:33 49.32285 9.14723 19839 ft 444 kts
2026-05-05 16:34 49.35303 9.15153 19831 ft 425 kts
2026-05-05 16:34 49.38191 9.15563 19818 ft 412 kts
2026-05-05 16:34 49.41038 9.15969 19480 ft 408 kts
2026-05-05 16:34 49.43851 9.16371 19240 ft 405 kts
2026-05-05 16:35 49.46657 9.16774 18924 ft 404 kts
2026-05-05 16:35 49.49450 9.17178 18377 ft 403 kts
2026-05-05 16:35 49.52269 9.17582 17459 ft 411 kts
2026-05-05 16:35 49.55110 9.17987 16885 ft 407 kts
2026-05-05 16:36 49.57903 9.18387 16338 ft 399 kts
2026-05-05 16:36 49.60640 9.18782 15805 ft 391 kts
2026-05-05 16:36 49.63303 9.19346 15279 ft 383 kts 14°
2026-05-05 16:36 49.65764 9.20721 14767 ft 376 kts 28°
2026-05-05 16:37 49.67946 9.22903 14261 ft 371 kts 41°
2026-05-05 16:37 49.69773 9.25666 13758 ft 366 kts 48°
2026-05-05 16:37 49.71615 9.28359 13220 ft 365 kts 39°
2026-05-05 16:37 49.73778 9.30394 12665 ft 364 kts 26°
2026-05-05 16:38 49.76174 9.31628 12119 ft 363 kts 13°
2026-05-05 16:38 49.78641 9.32398 11592 ft 361 kts 11°
2026-05-05 16:38 49.81098 9.33115 11060 ft 358 kts 11°
2026-05-05 16:38 49.83532 9.33821 10548 ft 354 kts 11°
2026-05-05 16:39 49.85943 9.34511 10038 ft 350 kts 11°
2026-05-05 16:39 49.88303 9.35192 9837 ft 338 kts 11°
2026-05-05 16:39 49.90563 9.35846 9715 ft 324 kts 11°
2026-05-05 16:39 49.92745 9.36476 9556 ft 313 kts 11°
2026-05-05 16:40 49.94848 9.37084 9398 ft 303 kts 11°
2026-05-05 16:40 49.96910 9.37687 9235 ft 300 kts 11°
2026-05-05 16:40 49.98958 9.38286 9078 ft 300 kts 11°
2026-05-05 16:40 50.01004 9.38888 8920 ft 299 kts 11°
2026-05-05 16:41 50.03043 9.39493 8764 ft 298 kts 11°
2026-05-05 16:41 50.05076 9.40105 8606 ft 296 kts 11°
2026-05-05 16:41 50.07091 9.40718 8450 ft 295 kts 11°
2026-05-05 16:41 50.09100 9.41328 8296 ft 294 kts 11°
2026-05-05 16:42 50.11103 9.41937 8146 ft 293 kts
2026-05-05 16:42 50.13120 9.41872 7956 ft 291 kts 344°
2026-05-05 16:42 50.14990 9.40718 7724 ft 288 kts 329°
2026-05-05 16:42 50.16463 9.38668 7498 ft 284 kts 307°
2026-05-05 16:43 50.17603 9.36175 7238 ft 281 kts 297°
2026-05-05 16:43 50.18510 9.33481 6916 ft 279 kts 294°
2026-05-05 16:43 50.19371 9.30788 6597 ft 276 kts 294°
2026-05-05 16:43 50.20223 9.28122 6295 ft 274 kts 294°
2026-05-05 16:44 50.20898 9.25378 5953 ft 269 kts 277°
2026-05-05 16:44 50.20847 9.22512 5693 ft 262 kts 255°
2026-05-05 16:44 50.20260 9.19864 5440 ft 256 kts 248°
2026-05-05 16:44 50.19654 9.17327 5348 ft 245 kts 248°
2026-05-05 16:45 50.19073 9.14846 5274 ft 242 kts 248°
2026-05-05 16:45 50.18501 9.12386 5194 ft 239 kts 249°
2026-05-05 16:45 50.17948 9.09997 5094 ft 231 kts 249°
2026-05-05 16:45 50.17402 9.07646 4994 ft 226 kts 248°
2026-05-05 16:46 50.16883 9.05422 4992 ft 211 kts 248°
2026-05-05 16:46 50.16381 9.03285 4997 ft 209 kts 248°
2026-05-05 16:46 50.15875 9.01171 4995 ft 208 kts 248°
2026-05-05 16:46 50.15374 8.99048 4999 ft 208 kts 247°
2026-05-05 16:47 50.14879 8.96933 4994 ft 208 kts 248°
2026-05-05 16:47 50.14380 8.94804 4998 ft 209 kts 248°
2026-05-05 16:47 50.13898 8.92745 5000 ft 195 kts 248°
2026-05-05 16:47 50.13455 8.90852 5003 ft 178 kts 248°
2026-05-05 16:48 50.13047 8.89114 4994 ft 163 kts 247°
2026-05-05 16:48 50.12667 8.87497 5002 ft 160 kts 247°
2026-05-05 16:48 50.12276 8.85838 4925 ft 165 kts 248°
2026-05-05 16:48 50.11880 8.84159 4740 ft 165 kts 247°
2026-05-05 16:49 50.11490 8.82499 4530 ft 162 kts 248°
2026-05-05 16:49 50.11099 8.80844 4303 ft 164 kts 248°
2026-05-05 16:49 50.10707 8.79182 4072 ft 162 kts 248°
2026-05-05 16:49 50.10320 8.77538 3831 ft 161 kts 249°
2026-05-05 16:50 50.09932 8.75899 3608 ft 161 kts 248°
2026-05-05 16:50 50.09548 8.74272 3394 ft 160 kts 248°
2026-05-05 16:50 50.09163 8.72646 3158 ft 160 kts 248°
2026-05-05 16:50 50.08780 8.71029 2929 ft 158 kts 248°
2026-05-05 16:51 50.08400 8.69427 2714 ft 158 kts 249°
2026-05-05 16:51 50.08021 8.67826 2481 ft 157 kts 249°
2026-05-05 16:51 50.07644 8.66239 2260 ft 155 kts 249°
2026-05-05 16:51 50.07273 8.64675 2036 ft 152 kts 249°
2026-05-05 16:52 50.06930 8.63232 1829 ft 134 kts 249°
2026-05-05 16:52 50.06617 8.61916 1644 ft 127 kts 248°
2026-05-05 16:52 50.06314 8.60642 1462 ft 125 kts 248°
2026-05-05 16:52 50.06012 8.59373 1280 ft 126 kts 249°
2026-05-05 16:53 50.05711 8.58107 1085 ft 124 kts 250°
2026-05-05 16:53 50.05419 8.56854 898 ft 125 kts 251°
2026-05-05 16:53 50.05110 8.55556 701 ft 126 kts 249°
2026-05-05 16:53 50.04802 8.54285 542 ft 126 kts 249°
2026-05-05 16:54 50.04498 8.53027 387 ft 124 kts 251°
2026-05-05 16:54 50.04236 8.51926 335 ft 74 kts 250°
2026-05-05 16:54 50.04092 8.51315 329 ft 50 kts 250°
2026-05-05 16:54 50.03937 8.50958 327 ft 32 kts 221°
2026-05-05 16:55 50.03812 8.50834 330 ft 15 kts 171°
2026-05-05 16:55 50.03783 8.50927 333 ft 8 kts 79°
2026-05-05 16:55 50.03808 8.51033 334 ft 14 kts 69°
2026-05-05 16:55 50.03851 8.51215 336 ft 22 kts 70°
2026-05-05 16:56 50.03901 8.51426 334 ft 19 kts 69°
2026-05-05 16:56 50.03944 8.51604 335 ft 17 kts 70°
2026-05-05 16:56 50.03984 8.51774 336 ft 17 kts 69°
2026-05-05 16:56 50.04029 8.51959 337 ft 20 kts 70°
2026-05-05 16:57 50.04082 8.52181 347 ft 24 kts 69°
2026-05-05 16:57 50.04143 8.52436 354 ft 27 kts 70°
2026-05-05 16:57 50.04211 8.52721 357 ft 30 kts 70°
2026-05-05 16:57 50.04285 8.53030 359 ft 31 kts 70°
2026-05-05 16:58 50.04357 8.53332 373 ft 28 kts 69°
2026-05-05 16:58 50.04401 8.53608 375 ft 25 kts 84°
2026-05-05 16:58 50.04418 8.53862 375 ft 22 kts 84°
2026-05-05 16:58 50.04432 8.54074 375 ft 18 kts 84°
2026-05-05 16:59 50.04444 8.54246 375 ft 14 kts 84°
2026-05-05 16:59 50.04454 8.54412 372 ft 17 kts 88°
2026-05-05 16:59 50.04423 8.54609 367 ft 19 kts 117°
2026-05-05 16:59 50.04332 8.54755 358 ft 20 kts 148°
2026-05-05 17:00 50.04200 8.54835 355 ft 20 kts 160°
2026-05-05 17:00 50.04086 8.54900 352 ft 11 kts 160°
2026-05-05 17:00 50.04071 8.54909 356 ft 0 kts 160°
2026-05-05 17:00 50.04069 8.54910 351 ft 3 kts 160°
2026-05-05 17:01 50.04016 8.54986 356 ft 18 kts 95°
2026-05-05 17:01 50.04062 8.55202 356 ft 23 kts 70°
2026-05-05 17:01 50.04122 8.55449 353 ft 24 kts 69°
2026-05-05 17:01 50.04176 8.55677 357 ft 20 kts 70°
2026-05-05 17:02 50.04204 8.55792 357 ft 0 kts 70°
2026-05-05 17:03 50.04205 8.55796 356 ft 3 kts 70°
2026-05-05 17:03 50.04226 8.55884 360 ft 15 kts 69°
2026-05-05 17:03 50.04257 8.56015 361 ft 10 kts 70°
2026-05-05 17:03 50.04307 8.56073 355 ft 10 kts 359°
2026-05-05 17:04 50.04375 8.56037 356 ft 11 kts 340°
2026-05-05 17:04 50.04445 8.56085 356 ft 14 kts 68°
2026-05-05 17:04 50.04480 8.56235 356 ft 15 kts 69°
2026-05-05 17:04 50.04515 8.56381 362 ft 13 kts 68°
2026-05-05 17:05 50.04580 8.56461 360 ft 11 kts 24°
2026-05-05 17:05 50.04630 8.56497 359 ft 5 kts 24°
2026-05-05 17:05 50.04649 8.56511 361 ft 3 kts 25°
2026-05-05 17:05 50.04665 8.56568 356 ft 8 kts 104°
2026-05-05 17:06 50.04650 8.56619 359 ft 2 kts 114°
2026-05-05 17:06 50.04645 8.56636 361 ft 3 kts 114°
2026-05-05 17:06 50.04638 8.56660 358 ft 2 kts 115°
2026-05-05 17:06 50.04637 8.56663 357 ft 0 kts 115°
2026-05-05 17:07 50.04637 8.56664 359 ft 0 kts 115°